User: anonymous   Login
Location: *
(51.1248°S, 108.4023°W)
Time: 19:11:57
(UTC+00:00)
Language:

USA 234 - Orbit

View from above orbital plane
View from above orbital plane
View from above satellite
View from above satellite

Ground track
Ground track

The orbit data is extracted from the following two-line orbital elements,

1 38109U 12014A   21269.15989111 0.00000000  00000-0  00000-0 0    07
2 38109 123.0022 162.5334 0005145  94.0618 265.9382 13.41429943    05
Epoch (UTC): 26 September 2021 03:50:14
Eccentricity: 0.0005145
inclination: 123.0022°
perigee height: 1100 km
apogee height: 1108 km
right ascension of ascending node: 162.5334°
argument of perigee: 94.0618°
revolutions per day: 13.41429943
mean anomaly at epoch: 265.9382°
orbit number at epoch: 0

The dashed part of the orbit path shows where the satellite is in the earth's shadow,  

DLR